Weather in Sokiryani

Ukraine / Chernovtci District     48°27′11″N   27°24′57″E
temp.,
°C
wind,
m/s
gust,
m/s
humid.,
%
clouds,
%
prec.,
mm/h
press.,
hPa
HPBL,
m
1 march, mon
mon123:00+2wnw61197100 1.0 1025665
02:00+2nnw5997100 3.3 1025539
05:00+2nnw51097100 0.2 1026481
08:00+2n5997100 0.4 1028608
11:00+3n6879100 0.1 1030838
14:00+4n577598 0.3 1031885
17:00+4nnw358090 0.1 1032528
20:00+3nnw257995 0.2 1034208
2 march, tue
tue223:00+3nnw368097 0.0 1034231
02:00+2wnw248193 0.0 103498
05:00+1wnw488941 0.0 1032212
08:00+1wnw5108927 0.0 1032371
11:00+6wnw6107048 0.0 1029544
14:00+9wnw7115924 0.0 1028850
17:00+9wnw7136031 0.0 1025799
20:00+6nw6167315 0.0 1026767
3 march, wed
wed323:00+5nw6157811 0.0 1027635
02:00+3nw512876 0.0 1029450
05:00+1nw49939 0.0 1029254
08:00+1nw48948 0.0 1030360
11:00+5nnw46600 0.0 1031700
14:00+8nw45420 0.0 10301067
17:00+7nw234941 0.0 1028173
20:00+4w126467 0.0 102822
4 march, thu
thu423:00+2sw127827 0.0 102722
02:00+1ssw238414 0.0 102539
05:00+1s23900 0.0 102256
08:00+2s38890 0.0 1020223
11:00+7sw34665 0.0 1017415
14:00+10w45493 0.0 1015721
17:00+9w365438 0.0 1013226
20:00+6wsw336719 0.0 101330
5 march, fri
fri523:00+5wsw237220 0.0 101329
02:00+4sw127429 0.0 101222
05:00+3s237692 0.0 101125
08:00+3sw357496 0.0 1010120
11:00+9ssw475489 0.0 1009353
14:00+12wsw7114276 0.0 10071403
17:00+10w41054100 0.0 1008495
20:00+6nw4108996 0.0 1010563